Wind_Speed
5 5 5 4 5 4 5 7 7 8 6 5 4 5 6 7 5 4 3 4 3 5 5 6 7 7 7 7 7 6 6 7 6 8 4 5 7 11 13 13 11 12 12
4 5 4 4 3 4 5 6 8 9 10 7 4 5 5 5 5 5 3 5 5 4 4 4 5 6 7 6 5 7 8 3 4 7 6 7 9 11 12 12 11 14 13
3 7 4 5 7 8 8 10 10 12 15 9 6 6 5 6 6 5 5 4 5 5 5 3 3 4 6 5 4 6 4 4 3 2 6 8 8 9 10 11 13 14 13
5 6 7 7 6 6 7 9 12 14 16 18 6 4 6 7 7 6 6 3 4 5 6 4 4 5 5 4 4 5 4 2 3 1 6 8 7 9 12 14 14 14 12
7 5 7 8 8 9 9 8 10 12 13 13 10 8 8 8 9 7 7 6 7 5 4 6 5 5 4 3 2 1 2 1 1 4 6 7 8 8 12 14 17 18 14
6 5 6 9 11 13 12 10 10 9 9 9 10 8 7 8 9 9 9 9 7 6 5 4 5 5 3 2 1 1 1 1 1 4 6 4 7 8 13 14 15 13 12
8 7 7 8 11 14 15 13 13 11 11 8 8 5 5 7 3 10 10 10 10 8 7 5 4 4 3 2 3 1 3 3 3 4 5 6 2 7 11 11 11 11 10
7 8 10 13 16 17 18 18 18 15 12 7 4 4 6 7 6 4 5 7 10 10 9 7 6 4 3 3 4 4 3 3 4 5 6 6 7 7 8 8 8 8 8
7 7 10 13 18 20 18 21 18 17 12 7 5 5 8 9 12 13 11 7 4 10 11 10 8 7 6 5 4 3 4 3 3 4 5 7 7 7 8 8 7 7 6
7 8 11 14 19 19 13 19 15 13 12 9 9 10 9 10 11 10 17 5 6 7 9 14 12 10 9 8 6 5 5 5 5 6 6 6 6 7 7 7 7 7 8
11 9 11 15 15 16 10 11 7 10 16 9 9 11 11 13 11 9 5 2 15 10 10 14 15 15 13 12 10 9 8 8 8 8 8 9 8 7 7 7 8 8 8
14 13 12 12 14 13 11 9 7 11 13 13 13 12 10 8 5 9 8 9 10 12 10 12 15 17 16 15 14 12 11 11 12 11 11 11 10 10 9 9 9 9 10
17 15 15 15 14 13 11 13 9 7 9 11 12 11 9 7 7 7 8 9 10 10 11 8 14 18 18 18 17 15 15 15 15 14 14 14 13 12 11 11 10 10 10
21 21 21 20 18 16 16 16 16 13 11 11 9 10 9 8 9 10 10 10 12 14 9 10 17 15 16 14 20 22 20 19 19 18 17 17 16 15 14 13 13 12 12
28 28 27 26 23 22 20 20 22 21 20 18 17 15 13 12 12 12 13 11 12 14 12 15 12 22 11 14 14 20 26 25 24 23 22 20 19 18 17 17 16 15 15
33 33 31 32 30 31 29 25 25 26 28 27 24 21 19 19 18 17 17 15 15 13 12 15 15 16 14 20 13 20 19 27 29 27 24 24 23 22 21 20 19 18 17
39 36 36 35 35 35 35 33 36 34 32 33 30 27 26 25 23 23 22 20 20 18 17 20 18 19 11 17 23 23 22 22 30 29 29 28 27 25 25 24 23 22 20
34 34 34 30 35 41 39 38 43 37 47 38 36 33 29 28 28 29 27 24 23 23 22 22 24 22 20 18 19 19 20 23 27 33 32 30 29 28 28 27 27 27 25
30 49 36 37 43 45 51 45 38 52 44 36 35 33 29 29 29 30 30 29 27 26 26 25 26 29 27 25 23 24 24 20 25 29 35 38 37 34 32 32 30 30 30
19 14 23 34 38 37 33 35 27 30 31 33 34 33 32 32 32 33 33 32 33 30 30 29 29 29 32 33 29 27 27 26 26 26 30 34 38 38 37 35 35 33 32
21 22 22 26 24 18 23 37 39 28 31 35 35 35 35 37 37 37 37 37 37 36 34 33 33 33 33 35 36 35 31 32 31 32 31 31 37 39 41 40 39 38 37
27 27 26 28 24 20 19 22 29 33 39 39 38 39 41 41 39 39 40 40 41 40 38 37 38 37 37 38 37 39 38 37 35 37 37 34 33 32 37 44 43 42 41
29 28 28 28 30 33 34 35 35 38 41 43 42 39 39 40 43 44 44 42 40 41 42 41 41 41 39 39 40 39 41 41 40 41 41 39 40 36 35 37 44 46 45
28 27 28 29 30 31 32 35 36 38 40 42 44 45 43 42 44 46 45 44 44 44 45 44 43 42 44 45 43 43 42 40 41 42 46 43 43 40 37 43 40 40 45
32 34 35 35 36 37 37 37 39 41 43 45 46 46 47 48 48 46 46 46 45 45 47 47 48 48 48 47 50 50 47 50 46 43 45 47 46 48 49 46 45 45 41
39 41 42 42 41 41 40 39 40 42 42 43 45 47 48 49 48 48 49 51 51 51 52 51 53 53 52 52 51 52 52 53 53 51 48 50 48 51 52 51 49 48 46
Wind_Direction
196 247 240 197 224 236 272 250 259 267 282 300 281 250 266 264 262 282 305 303 302 261 245 242 254 259 258 265 284 274 268 264 245 254 200 172 172 173 180 182 179 172 173
199 212 210 227 258 261 278 261 263 260 265 272 288 248 276 285 284 302 322 321 308 294 263 243 247 248 247 261 245 275 282 64 220 241 234 180 169 181 189 183 178 181 182
223 227 239 248 279 285 279 270 268 266 266 262 276 254 268 279 276 287 313 328 321 329 313 286 274 259 253 251 250 271 317 13 40 50 222 196 174 180 180 185 184 185 187
250 262 268 265 294 325 314 283 252 274 286 285 293 265 281 281 287 295 305 319 333 332 327 322 308 287 275 267 262 280 297 332 357 81 189 187 192 186 182 184 185 183 186
277 280 273 274 282 294 300 294 276 281 284 327 331 296 282 274 277 281 283 294 304 320 323 324 315 308 306 298 266 294 289 293 35 39 186 198 209 202 179 180 185 185 179
286 282 274 276 273 273 275 277 274 280 289 301 312 278 288 280 267 272 282 268 282 303 316 317 317 315 341 329 256 137 327 217 149 114 140 153 142 177 171 161 170 179 204
300 297 287 284 280 272 262 259 265 269 269 280 310 285 284 276 263 248 249 275 280 281 285 288 304 310 316 318 306 252 214 228 186 160 171 172 183 165 163 186 190 198 202
282 293 292 294 289 286 276 265 263 266 265 246 288 306 283 280 277 273 254 250 271 273 276 277 275 274 263 247 263 287 279 212 203 178 172 169 162 170 182 188 193 208 210
291 302 309 326 324 302 276 273 262 270 255 249 259 280 286 294 324 212 298 240 243 283 274 260 265 260 258 250 239 254 286 267 235 223 201 185 181 183 190 195 198 213 230
289 310 319 325 338 328 269 271 253 262 255 240 260 266 279 306 284 234 282 205 300 276 262 261 260 253 252 253 247 244 231 238 247 225 215 207 203 198 196 200 208 217 233
285 290 308 322 333 342 319 301 275 252 259 252 249 260 272 296 274 279 293 209 254 242 289 246 245 253 249 250 248 241 242 235 224 227 220 214 212 216 216 215 219 222 233
283 284 293 308 314 319 326 329 294 257 255 255 257 256 260 275 247 245 249 261 277 279 287 264 251 251 253 253 254 250 241 240 237 228 227 225 218 211 219 226 234 238 243
277 265 276 283 291 291 294 296 293 278 259 258 262 272 269 257 253 241 250 254 266 251 241 262 243 249 255 258 258 258 252 243 243 241 232 229 225 218 223 231 233 237 238
265 266 267 272 277 280 280 277 275 271 265 261 260 261 262 259 258 258 263 268 273 272 253 243 258 259 243 236 266 260 256 251 247 242 242 234 231 230 228 233 234 238 239
266 269 270 268 271 278 273 270 275 274 266 263 261 262 267 266 265 264 267 270 280 273 266 260 247 253 238 259 267 261 249 244 246 245 244 242 244 241 242 239 234 236 238
264 259 260 270 273 280 276 271 272 270 271 265 261 265 266 263 262 265 268 271 272 276 277 277 266 284 280 262 251 270 262 239 240 239 241 247 247 250 249 248 247 241 237
255 258 256 259 270 270 272 264 280 266 266 265 262 262 265 267 268 267 268 268 272 273 273 277 276 287 285 276 275 265 265 253 238 243 245 247 250 252 254 255 254 247 239
261 266 270 275 273 266 278 275 271 266 257 260 260 260 261 267 271 274 275 272 270 271 270 273 278 278 276 268 271 264 263 259 245 241 243 243 247 251 251 252 254 254 247
280 248 267 272 278 270 266 271 275 264 246 253 260 262 266 267 269 270 272 273 271 269 271 269 269 275 278 277 273 276 284 279 257 252 246 244 242 245 252 252 248 250 251
309 298 272 279 281 280 258 274 249 231 235 253 256 262 267 269 268 269 270 270 271 269 269 270 269 268 273 275 274 270 269 270 278 270 256 254 251 248 244 246 251 250 250
288 280 270 278 283 294 289 264 233 222 255 257 261 264 267 267 268 267 267 268 267 268 267 265 265 267 267 270 273 271 266 264 267 266 272 264 251 251 250 247 245 246 249
289 278 270 268 267 259 262 246 255 255 265 273 271 268 267 268 269 269 269 269 270 272 273 272 270 267 266 266 265 268 271 267 263 263 263 267 271 267 259 251 248 247 246
288 288 283 277 274 272 272 269 266 262 264 267 271 270 269 270 271 270 270 270 272 272 272 270 270 271 268 267 265 265 264 264 264 265 262 265 267 266 261 269 250 246 245
293 292 290 289 285 279 277 276 276 274 272 272 275 278 277 272 267 266 268 268 267 267 268 270 270 268 271 274 273 273 272 270 268 266 266 262 259 261 250 265 265 256 249
293 292 291 288 285 283 281 277 274 273 273 274 275 274 272 270 269 271 273 271 269 270 270 272 274 274 273 270 273 274 274 273 271 267 265 266 262 260 259 258 262 265 262
300 298 296 293 290 288 284 282 280 277 275 273 274 274 275 273 275 277 275 272 272 270 271 271 272 272 273 274 273 271 270 270 271 270 266 265 262 260 258 259 258 259 260
Height
5895 5897 5897 5898 5898 5898 5897 5897 5897 5896 5895 5895 5893 5893 5893 5893 5893 5893 5892 5891 5891 5891 5890 5890 5891 5892 5892 5892 5893 5893 5893 5893 5893 5895 5896 5896 5898 5899 5901 5905 5908 5911 5913
5895 5896 5897 5898 5898 5898 5896 5895 5895 5895 5895 5893 5892 5892 5892 5892 5892 5892 5892 5891 5891 5891 5890 5889 5889 5890 5891 5891 5892 5891 5889 5891 5892 5893 5895 5896 5897 5900 5902 5905 5908 5911 5913
5895 5896 5897 5898 5897 5896 5896 5894 5893 5893 5888 5889 5891 5891 5891 5891 5890 5891 5890 5891 5892 5891 5891 5889 5889 5889 5891 5891 5891 5891 5891 5890 5892 5893 5894 5896 5896 5899 5902 5905 5908 5911 5914
5896 5896 5897 5897 5896 5895 5895 5893 5893 5892 5890 5890 5889 5891 5891 5891 5890 5890 5890 5890 5891 5891 5891 5891 5890 5890 5890 5891 5891 5891 5891 5891 5892 5892 5893 5896 5897 5899 5902 5904 5908 5911 5914
5896 5896 5897 5897 5896 5895 5893 5892 5891 5891 5890 5890 5889 5890 5890 5890 5890 5889 5890 5891 5891 5891 5891 5890 5890 5890 5890 5890 5891 5892 5892 5892 5892 5893 5894 5896 5897 5899 5901 5904 5908 5910 5913
5895 5895 5895 5896 5895 5894 5892 5891 5890 5889 5890 5889 5888 5887 5888 5888 5889 5890 5889 5891 5890 5890 5890 5890 5889 5890 5890 5889 5890 5891 5892 5893 5893 5894 5896 5897 5898 5899 5902 5905 5908 5911 5914
5895 5895 5894 5893 5892 5890 5889 5889 5888 5888 5888 5887 5887 5886 5886 5883 5886 5886 5885 5888 5889 5889 5889 5889 5889 5889 5890 5890 5890 5891 5892 5893 5894 5895 5895 5897 5899 5901 5903 5906 5908 5911 5913
5893 5892 5892 5891 5889 5888 5888 5886 5886 5885 5885 5885 5886 5885 5884 5885 5883 5882 5882 5882 5886 5888 5887 5888 5888 5888 5888 5889 5890 5891 5891 5892 5894 5895 5896 5896 5898 5900 5903 5905 5908 5910 5912
5892 5891 5891 5890 5888 5885 5885 5883 5882 5883 5883 5881 5882 5884 5882 5883 5879 5875 5884 5882 5880 5885 5889 5887 5886 5887 5887 5887 5888 5889 5891 5892 5893 5894 5896 5897 5898 5899 5902 5904 5906 5909 5912
5892 5891 5890 5889 5887 5883 5881 5882 5880 5881 5879 5880 5881 5881 5880 5879 5878 5881 5877 5873 5880 5880 5881 5888 5887 5885 5885 5885 5886 5887 5889 5891 5892 5893 5894 5896 5897 5899 5900 5902 5904 5907 5910
5889 5888 5887 5887 5886 5884 5881 5880 5880 5880 5879 5878 5874 5877 5878 5878 5876 5875 5878 5877 5878 5869 5877 5878 5882 5885 5883 5883 5885 5885 5887 5889 5890 5892 5893 5895 5896 5897 5899 5901 5903 5905 5908
5888 5887 5885 5884 5883 5883 5881 5880 5878 5878 5878 5877 5875 5875 5874 5875 5875 5876 5876 5874 5875 5872 5873 5874 5877 5882 5882 5881 5882 5884 5885 5887 5888 5889 5891 5892 5893 5895 5897 5899 5901 5903 5905
5885 5884 5883 5881 5879 5879 5878 5879 5877 5877 5876 5876 5876 5874 5873 5872 5873 5873 5873 5873 5873 5873 5873 5875 5877 5877 5878 5880 5880 5882 5883 5884 5885 5887 5888 5888 5890 5891 5893 5896 5897 5899 5901
5881 5880 5879 5878 5877 5877 5877 5876 5876 5875 5875 5873 5872 5871 5870 5870 5869 5868 5868 5868 5868 5868 5871 5872 5869 5873 5871 5870 5877 5877 5878 5880 5881 5883 5886 5886 5886 5888 5889 5891 5893 5895 5897
5876 5876 5874 5873 5873 5873 5874 5873 5873 5873 5872 5871 5869 5868 5867 5867 5866 5865 5865 5865 5864 5863 5867 5866 5867 5838 5851 5865 5869 5872 5873 5874 5876 5878 5881 5883 5885 5886 5887 5888 5888 5890 5892
5868 5867 5868 5868 5867 5868 5867 5867 5868 5868 5869 5868 5865 5865 5863 5863 5862 5861 5862 5861 5861 5860 5862 5861 5860 5861 5861 5849 5858 5866 5865 5867 5869 5870 5873 5877 5880 5882 5884 5885 5887 5887 5888
5856 5856 5860 5862 5859 5860 5861 5861 5862 5863 5862 5862 5861 5859 5858 5857 5857 5856 5857 5857 5857 5856 5856 5857 5859 5857 5858 5856 5857 5861 5859 5861 5863 5866 5868 5870 5874 5876 5879 5881 5883 5884 5885
5848 5850 5849 5852 5850 5851 5852 5851 5851 5850 5854 5853 5855 5854 5852 5852 5853 5852 5851 5851 5852 5852 5852 5853 5852 5854 5856 5856 5855 5853 5852 5853 5856 5858 5861 5863 5867 5870 5871 5874 5877 5880 5881
5841 5841 5842 5843 5843 5841 5839 5839 5838 5839 5842 5846 5847 5847 5845 5844 5845 5845 5844 5844 5844 5844 5845 5845 5847 5846 5847 5848 5849 5848 5846 5845 5847 5850 5854 5854 5854 5858 5864 5867 5868 5871 5875
5836 5834 5836 5835 5832 5829 5827 5828 5827 5827 5832 5835 5837 5837 5837 5836 5836 5835 5835 5837 5837 5837 5837 5837 5838 5838 5839 5839 5841 5842 5843 5842 5843 5843 5844 5848 5850 5852 5852 5857 5862 5864 5866
5832 5833 5832 5831 5827 5823 5819 5817 5819 5822 5824 5825 5827 5828 5826 5826 5826 5826 5826 5827 5827 5827 5827 5828 5829 5829 5829 5830 5831 5833 5836 5836 5836 5836 5839 5839 5840 5843 5845 5847 5851 5854 5858
5827 5826 5825 5823 5820 5819 5817 5819 5819 5819 5817 5815 5815 5817 5818 5817 5816 5815 5814 5815 5816 5816 5814 5814 5817 5819 5819 5817 5818 5820 5824 5827 5830 5829 5828 5830 5833 5835 5838 5837 5841 5844 5847
5820 5817 5816 5814 5812 5811 5812 5811 5810 5810 5810 5810 5808 5807 5806 5805 5804 5803 5802 5803 5804 5803 5804 5803 5802 5804 5806 5806 5806 5807 5809 5812 5816 5819 5820 5825 5821 5825 5826 5829 5828 5831 5835
5810 5809 5807 5806 5805 5802 5803 5802 5800 5798 5798 5798 5797 5796 5794 5795 5795 5795 5795 5794 5793 5793 5791 5789 5793 5796 5795 5795 5795 5798 5799 5800 5803 5807 5806 5812 5811 5817 5810 5816 5820 5820 5822
5803 5801 5799 5797 5796 5793 5792 5791 5790 5787 5786 5786 5786 5786 5785 5784 5782 5782 5781 5782 5782 5782 5778 5778 5779 5782 5783 5783 5784 5782 5787 5787 5792 5794 5793 5795 5802 5802 5803 5805 5807 5810 5812
5792 5789 5787 5784 5782 5782 5781 5779 5777 5776 5775 5775 5774 5773 5771 5769 5769 5769 5766 5764 5764 5765 5764 5764 5765 5766 5767 5768 5769 5770 5772 5772 5775 5778 5782 5780 5785 5785 5789 5794 5796 5797 5799